Regional Weather Roundup
Issued by NWS

Home | Current Version | Previous Version | Graphics & Text | Print | Product List | Glossary On
Versions: 1 2 3 4 5 6 7 8 9 10 11 12 13 14 15 16 17 18 19 20 21 22 23 24 25 26 27 28 29 30 31 32 33 34 35 36 37 38 39 40 41 42 43 44 45 46 47 48 49 50
000
ASUS45 KBOU 281707
RWRCO

WEATHER ROUNDUP FOR COLORADO
NATIONAL WEATHER SERVICE DENVER/BOULDER CO
1000 AM MST SAT FEB 28 2015

NOTE: "FAIR" INDICATES FEW OR NO CLOUDS BELOW 12000 FEET WITH NO
SIGNIFICANT WEATHER AND/OR OBSTRUCTIONS TO VISIBILITY.

COZ001>005-013-030-031-281800-
...NORTHWEST COLORADO...

CITY           SKY/WX    TMP DP  RH WIND       PRES   REMARKS
CRAIG          SUNNY     30  15  53 E16       29.79S WCI  19
HAYDEN         SUNNY     23   9  54 E10       29.79S WCI  12
MEEKER         MOSUNNY   26  13  57 CALM      29.77F
MOUNT WERNER   NOT AVBL
STEAMBOAT SPGS SUNNY     14   3  62 CALM      29.80F
WALDEN         SUNNY     10   1  67 SW3       29.79S
$$

COZ006>008-011-281800-
...WEST CENTRAL VALLEYS...

CITY           SKY/WX    TMP DP  RH WIND       PRES   REMARKS
GRAND JUNCTION CLOUDY    34  18  52 E14       29.80R WCI  25
MONTROSE       CLOUDY    28  19  69 S3        29.82S
EAGLE          PTSUNNY   23  12  63 CALM      29.86S
RIFLE          PTSUNNY   28  18  66 CALM      29.81F
DELTA          CLOUDY    30  22  73 NE3       29.83S
NUCLA          LGT SNOW  28  23  80 E3        29.81F
$$

COZ017>023-064>068-281800-
...SOUTHWEST COLORADO...

CITY           SKY/WX    TMP DP  RH WIND       PRES   REMARKS
DURANGO        HVY SNOW  27  25  92 NE5       29.83R VSB 1/4 WCI  22
CORTEZ         HVY SNOW  31  30  96 W3        29.80R VSB 1/4
PAGOSA SPRINGS LGT SNOW  27  25  91 CALM      29.83S VSB 1
TELLURIDE      LGT SNOW  25  21  83 CALM      29.76F
WOLF CREEK PAS SNOW      14  14 100 SW10      29.81R VSB 1/2 WCI   1
$$

COZ009-010-012-014-032>034-037-058>063-281800-
...CENTRAL COLORADO...

CITY           SKY/WX    TMP DP  RH WIND       PRES   REMARKS
ASPEN          PTSUNNY   19   7  59 CALM      29.77S
BUENA VISTA    CLOUDY    19   9  66 W6        29.84S WCI  10
COPPER MTN     PTSUNNY   18   1  49 SE12      29.72S WCI   5
BERTHOUD PASS  FAIR       5   0  78 SE7       29.75R WCI  -7
COTTONWOOD PAS CLOUDY    19  12  73 CALM      29.79S
GUNNISON       PTSUNNY   18   7  62 N7        29.86S WCI   8
KREMMLING      MOSUNNY   19   5  53 CALM      29.85F
LEADVILLE      PTSUNNY   10   2  69 CALM      29.75S
SALIDA         PTSUNNY   24  12  60 N7        29.92S WCI  16
SUNLIGHT       PTSUNNY   19  12  73 SE3         N/A
WILKERSON PASS PTSUNNY   18  10  73 SW3       29.80R
$$

COZ069>075-281800-
...SAN LUIS VALLEY/SANGRE DE CRISTO MOUNTAINS...

CITY           SKY/WX    TMP DP  RH WIND       PRES   REMARKS
ALAMOSA        CLOUDY    22  16  78 E3        29.88R
LA VETA PASS   LGT SNOW  21  18  86 MISG      29.81R
SAGUACHE       CLOUDY    23  19  86 SE9       29.86S WCI  13
$$

COZ035-036-038>040-281800-
...NORTHERN COLORADO FRONT RANGE...

CITY           SKY/WX    TMP DP  RH WIND       PRES   REMARKS
DENVER INTL AP PTSUNNY   12   7  80 W7        29.97R FOG     WCI   1
DMNS CITY PARK   N/A     19   8  61 W6        29.98S WCI  11
AURORA         PTSUNNY   12   7  81 CALM      29.96R FOG
FRONT RANGE AP NOT AVBL
ERIE MUNI ARPT SUNNY     14  11  90 CALM      29.99S
BOULDER MUN AP SUNNY     21  10  63 N6        29.98R WCI  14
CENTENNIAL     PTSUNNY   14   7  73 NW3       29.93S
BROOMFIELD     MOSUNNY   19  10  68 N9        29.96R WCI   9
FORT COLLINS   SUNNY     14   9  79 CALM      30.00S
LONGMONT       SUNNY     24  10  55 CALM      30.02R
$$

COZ041-046-047-076>085-087-088-281800-
...PIKES PEAK/PALMER DIVIDE AND SOUTHERN FOOTHILLS...

CITY           SKY/WX    TMP DP  RH WIND       PRES   REMARKS
COLO. SPRINGS  PTSUNNY   13   6  74 NE7       29.91R WCI   3
A. F. ACADEMY  MOSUNNY   19   9  65 S8        29.87R WCI   9
ELLICOTT       NOT AVBL
FALCON         MOSUNNY   16   7  67 SE3       29.89R
FORT CARSON    PTSUNNY   12   9  88 NE2       29.92R
LIMON          MOSUNNY    8   4  83 S3        29.97S
MONUMENT HILL  SUNNY     16   7  67 W6        29.86S WCI   7
TRINIDAD       PTSUNNY   14   8  77 CALM      29.92R
$$

COZ042>045-048>051-090-091-281800-
...NORTHEAST COLORADO...

CITY           SKY/WX    TMP DP  RH WIND       PRES   REMARKS
GREELEY ARPT   SUNNY     16   7  67 CALM      30.00F
AKRON          PTSUNNY   14   8  77 SW6       30.01S WCI   5
BURLINGTON     CLOUDY    14   8  77 S13       30.06S HAZE    WCI   0
WRAY           PTSUNNY   19  11  69 S8        30.11F WCI   9
STERLING       SUNNY     19  10  68 SW6       30.06S WCI  11
HOLYOKE        NOT AVBL
FORT MORGAN    SUNNY     17   7  63 CALM      30.03S
$$

COZ086-089-092>099-281800-
...SOUTHEAST COLORADO...

CITY           SKY/WX    TMP DP  RH WIND       PRES   REMARKS
PUEBLO         MOSUNNY   12   6  77 CALM      30.00R
LA JUNTA       MOSUNNY   16   9  74 NW7       30.04S WCI   6
LAMAR          MOSUNNY   20  11  68 SW5       30.05S WCI  13
SPRINGFIELD      N/A     17  12  80 S15       30.01R WCI   2
$$


USA.gov is the U.S. government's official web portal to all federal, state and local government web resources and services.